STARLINK-4727, 53803

Orbit data source: Space-Track

STARLINK-4727, 53803 is a payload satellite owned by SpaceX/Seattle (US) in LEO that was launched on Sun, 11 Sep 2022 UTC via an FALCON 9 launch vehicle from the Air Force Eastern Test Range (AFETR). Payloads include a variety of satellites, spacecraft, and rockets equipped with specific instruments for various scientific and technological missions. These include communications satellites like Starlink; space stations such as the ISS; scientific satellites like the Hubble; Earth observation satellites from companies like Planet Labs, Umbra, and HawkEye 360; GPS; miniature CubeSats for education and research; and military/defense satellites.

Loading next visibility...
STARLINK-4727 details
Identifier
53803, 2022-111AG
Orbit
LEO
Last TLE update18 hours ago
Origin
Flag of USSpaceX/Seattle (US)
ManufacturerSpaceX/Seattle
MissionOperational Commercial Communications
Bus & MotorSTARLINK, Unknown motor
Mass305 kg wet, ~290 kg dry
Launch date (UTC)
2022-09-11 (2 years ago)
Launch vehicle
FALCON 9
Launch site
Air Force Eastern Test Range (AFETR)
Object type
Payload
Rocket body
Debris
Shape & HBRBox + 1 Pan, 8.86 m
Radar Cross Section13.562 m², Large (>1 m²)

Expand to show TLE details & history

TLE from 18 hours ago
0 STARLINK-4727
1 53803U 22111AG  24356.52720773  .00001991  00000-0  14313-3 0  9994
2 53803  53.2183  78.5972 0001460  94.1238 265.9921 15.08846575127125
Epoch: 2024-12-21T12:39Z
Definitive object data (Epoch: 2024-12-21T12:39:10.747Z)
Latitude-0.00005°
Longitude158.2253°
Altitude540.692 km
Speed7.593 km/s
True Right ascension05h 14m 23s
True Declination0° 00' 00"
Sunlit
Object was in full shadow at TLE epoch
Visualization TLE readout
Latitude51.55633°
Longitude-135.62292°
Altitude544.95 km
Speed7.596 km/s
Apparent Right ascension14h 00m 49s
Apparent Declination15° 42' 01"
Sunlit
Object is in full shadow
Visualization observer readout
Local Sidereal Time05:33:39
Azimuth53.163° ENE
Elevation-15.58°
Doppler factor1
Orbital elements
Apogee altitude540.978 km
Perigee altitude538.958 km
Semi-major axis6,918.105 km
Eccentricity0.000146
Inclination53.2183°
RAAN78.5972°
Arg. of periapsis94.1238°
True anomaly265.97541°
Mean anomaly265.9921°
Eccentric anomaly265.98376°
Mean motion3.77192 °/min
BSTAR0.00014313
Orbital period95.44 mins
Loading maneuver chart data...
Loading historical data...
Loading historical data...
Loading historical data...
Loading historical data...
Loading historical data...
Loading historical data...
Loading historical data...

STARLINK-4727 Visibility forecast

Observer location: undefined°, undefined

Span
Click to sort rows by Start time (UTC) header in descending order
Start Az.
Max El. time (UTC)
Max El. Az.
Max El.
End time (UTC)
End Az.
7 mins2024-12-22 07:52:53.343Z207.003° SW2024-12-22 07:56:53.343Z122.335° SE35.494°2024-12-22 07:59:53.343Z63.699° ENE
5 mins2024-12-22 09:33:53.343Z282.549° WNW2024-12-22 09:35:53.343Z325.127° NNW26.065°2024-12-22 09:38:53.343Z26.963° NE
6 mins2024-12-22 14:34:53.343Z328.035° NNW2024-12-22 14:37:53.343Z56.928° ENE34.633°2024-12-22 14:40:53.343Z106.88° ESE
4 mins2024-12-22 16:14:53.343Z266.299° W2024-12-22 16:16:53.343Z222.228° SW22.355°2024-12-22 16:18:53.343Z185.212° SSW
|